Weather History for Traverse City, MI

Change the Weather History Date:

Friday, November 22, 2013

  Actual Average Record
Temperature  
Mean Temperature 35 °F 35 °F  
Max Temperature 42 °F 41 °F 65 °F (2012)
Min Temperature 28 °F 29 °F 11 °F (1946)
Degree Days  
Heating Degree Days 30 30  
Month to date heating degree days 527 575  
Since 1 July heating degree days 1167 1362  
Moisture  
Dew Point 29 °F    
Average Humidity 77    
Maximum Humidity 92    
Minimum Humidity 61    
Precipitation  
Precipitation 0.07 in 0.09 in 1.28 in (1934)
Month to date precipitation 4.35 2.02  
Year to date precipitation 34.78 29.88  
Sea Level Pressure  
Sea Level Pressure 30.29 in    
Wind  
Wind Speed 10 mph (NW)    
Max Wind Speed 22 mph    
Max Gust Speed 30 mph    
Visibility 6 miles    
Events Fog , Rain , Snow    
T = Trace of Precipitation, MM = Missing Value Source: NWS Daily Summary

Daily Weather History Graph

Daily Weather History Graph

Search for Another Location

Airport:

Trip Planner

Search our weather history database for the weather conditions in past years. The results will help you decide how hot, cold, wet, or windy it might be!

Date:

Astronomy

Nov. 22, 2013 Rise Set
Actual Time 7:48 AM EST 5:07 PM EST
Civil Twilight 7:16 AM EST 5:40 PM EST
Nautical Twilight 6:40 AM EST 6:16 PM EST
Astronomical Twilight 6:05 AM EST 6:50 PM EST
Moon 9:42 PM EST (11/22) 11:29 AM EST (11/22)
Length of Visible Light 10h 23m
Length of Day
9h 19m
Waning Gibbous, 78% of the Moon is Illuminated
Nov 22
Waning Gibbous
Nov 25
Last Quarter
Dec 2
New
Dec 9
First Quarter
Dec 17
Full

Hourly Weather History & Observations

Time (EST) Temp. Windchill Dew Point Humidity Pressure Visibility Wind Dir Wind Speed Gust Speed Precip Events Conditions
12:07 AM 42.1 °F 37.1 °F 39.9 °F 92% 30.16 in 6.0 mi NW 8.1 mph - 0.00 in Rain Light Rain
12:53 AM 42.1 °F 38.4 °F 39.0 °F 89% 30.18 in 7.0 mi North 5.8 mph - 0.00 in Rain Light Rain
1:30 AM 42.1 °F 38.4 °F 39.0 °F 89% 30.16 in 7.0 mi NNW 5.8 mph - 0.01 in Rain Light Rain
1:53 AM 41.0 °F 36.4 °F 37.9 °F 89% 30.18 in 7.0 mi NNW 6.9 mph - 0.01 in   Overcast
2:25 AM 41.0 °F 37.1 °F 37.0 °F 86% 30.17 in 10.0 mi NNW 5.8 mph - 0.00 in Rain Light Rain
2:53 AM 39.9 °F 32.1 °F 36.0 °F 86% 30.20 in 7.0 mi NNW 13.8 mph - 0.00 in Rain Light Rain
3:53 AM 37.0 °F 28.5 °F 33.1 °F 86% 30.21 in 10.0 mi North 13.8 mph 20.7 mph 0.02 in   Overcast
4:53 AM 35.1 °F 28.6 °F 33.1 °F 92% 30.23 in 5.0 mi NNW 8.1 mph - 0.01 in   Overcast
5:00 AM 35.1 °F 26.4 °F 32.0 °F 89% 30.21 in 5.0 mi North 12.7 mph 18.4 mph 0.01 in Snow Light Snow
5:18 AM 35.1 °F 25.9 °F 33.1 °F 92% 30.22 in 4.0 mi NNW 13.8 mph 19.6 mph 0.01 in Snow Light Snow
5:35 AM 35.1 °F 26.4 °F 32.0 °F 89% 30.22 in 7.0 mi NNW 12.7 mph 21.9 mph 0.01 in Snow Light Snow
5:53 AM 35.1 °F 25.5 °F 30.9 °F 85% 30.24 in 4.0 mi North 15.0 mph 20.7 mph 0.01 in Snow Light Snow
6:09 AM 34.0 °F 26.6 °F 30.9 °F 89% 30.23 in 3.0 mi North 9.2 mph - 0.00 in Snow Light Snow
6:53 AM 34.0 °F 25.5 °F 30.0 °F 85% 30.26 in 5.0 mi NNW 11.5 mph 21.9 mph 0.01 in Snow Light Snow
7:36 AM 34.0 °F 25.0 °F 30.0 °F 85% 30.25 in 6.0 mi NNW 12.7 mph 24.2 mph 0.00 in Snow Light Snow
7:53 AM 33.1 °F 22.6 °F 30.0 °F 89% 30.27 in 5.0 mi NNW 16.1 mph 21.9 mph 0.00 in Snow Light Snow
8:03 AM 33.1 °F 23.9 °F 30.0 °F 89% 30.26 in 2.0 mi North 12.7 mph 21.9 mph 0.00 in Snow Light Snow
8:12 AM 33.1 °F 23.9 °F 30.0 °F 89% 30.25 in 1.5 mi NNW 12.7 mph - 0.00 in Snow Light Snow
8:30 AM 33.1 °F 22.6 °F 30.0 °F 89% 30.25 in 2.0 mi North 16.1 mph 21.9 mph 0.00 in Snow Light Snow
8:53 AM 33.1 °F 23.9 °F 28.9 °F 85% 30.29 in 2.0 mi North 12.7 mph 24.2 mph 0.00 in Snow Light Snow
9:16 AM 33.1 °F 23.4 °F 28.9 °F 85% 30.28 in 2.0 mi NNW 13.8 mph 29.9 mph 0.00 in Snow Light Snow
9:53 AM 33.1 °F 23.0 °F 28.9 °F 85% 30.32 in 2.0 mi NNW 15.0 mph 24.2 mph 0.00 in Snow Light Snow
10:22 AM 33.1 °F 23.4 °F 30.0 °F 89% 30.31 in 2.0 mi NNW 13.8 mph 21.9 mph 0.00 in Snow Light Snow
10:53 AM 33.1 °F 23.4 °F 28.9 °F 85% 30.34 in 2.0 mi NNW 13.8 mph 20.7 mph 0.00 in Snow Light Snow
11:08 AM 33.1 °F 23.4 °F 28.9 °F 85% 30.33 in 0.5 mi NNW 13.8 mph 19.6 mph 0.00 in Fog , Snow Light Snow
11:17 AM 32.0 °F 22.1 °F 30.0 °F 92% 30.33 in 0.5 mi NNW 13.8 mph - 0.01 in Fog , Snow Snow
11:29 AM 32.0 °F 19.5 °F 30.0 °F 92% 30.33 in 1.0 mi NNW 21.9 mph 28.8 mph 0.01 in Snow Light Snow
11:40 AM 33.1 °F 23.0 °F 28.9 °F 85% 30.32 in 2.5 mi NNW 15.0 mph 27.6 mph 0.01 in Snow Light Snow
11:53 AM 33.1 °F 23.4 °F 28.9 °F 85% 30.34 in 7.0 mi NNW 13.8 mph 21.9 mph 0.01 in Snow Light Snow
12:11 PM 34.0 °F 24.2 °F 27.0 °F 75% 30.31 in 10.0 mi NNW 15.0 mph 21.9 mph 0.00 in   Mostly Cloudy
12:53 PM 35.1 °F 27.9 °F 26.1 °F 70% 30.34 in 10.0 mi NNW 9.2 mph 21.9 mph 0.00 in   Mostly Cloudy
1:27 PM 34.0 °F 26.0 °F 26.1 °F 73% 30.32 in 10.0 mi NNW 10.4 mph 24.2 mph N/A   Overcast
1:53 PM 34.0 °F 23.4 °F 25.0 °F 70% 30.35 in 10.0 mi NW 17.3 mph 24.2 mph N/A   Mostly Cloudy
2:53 PM 34.0 °F 24.2 °F 21.9 °F 61% 30.36 in 10.0 mi NNW 15.0 mph 21.9 mph N/A   Overcast
3:53 PM 34.0 °F 25.5 °F 21.9 °F 61% 30.38 in 10.0 mi NW 11.5 mph 20.7 mph N/A   Overcast
4:51 PM 33.8 °F 26.4 °F 23.0 °F 65% 30.37 in 10.0 mi West 9.2 mph - N/A   Overcast
4:53 PM 33.1 °F 26.1 °F 23.0 °F 66% 30.39 in 10.0 mi West 8.1 mph - N/A   Overcast
5:31 PM 32.0 °F 23.6 °F 21.9 °F 66% 30.36 in 10.0 mi West 10.4 mph - N/A   Overcast
5:53 PM 32.0 °F 25.6 °F 23.0 °F 69% 30.38 in 10.0 mi West 6.9 mph - N/A   Overcast
6:02 PM 32.0 °F 25.6 °F 21.9 °F 66% 30.36 in 10.0 mi West 6.9 mph - N/A   Overcast
6:53 PM 32.0 °F 26.4 °F 23.0 °F 69% 30.36 in 10.0 mi WSW 5.8 mph - N/A   Overcast
7:53 PM 30.9 °F 25.2 °F 23.0 °F 72% 30.36 in 10.0 mi WSW 5.8 mph - N/A   Mostly Cloudy
8:44 PM 30.0 °F 26.5 °F 23.0 °F 75% 30.32 in 10.0 mi Variable 3.5 mph - N/A   Scattered Clouds
8:53 PM 30.0 °F 26.5 °F 21.9 °F 72% 30.34 in 10.0 mi SSW 3.5 mph - N/A   Scattered Clouds
9:53 PM 28.9 °F 25.2 °F 23.0 °F 78% 30.31 in 10.0 mi SSE 3.5 mph - N/A   Clear
10:53 PM 28.9 °F 23.9 °F 23.0 °F 78% 30.29 in 10.0 mi SSW 4.6 mph - N/A   Clear
11:53 PM 30.9 °F 22.2 °F 19.0 °F 61% 30.27 in 10.0 mi WSW 10.4 mph - N/A   Scattered Clouds